COSMOS 1275 DEB, 42099

Orbit data source: Space-Track

COSMOS 1275 DEB, 42099 is space debris in LEO originally from a launch on Thu, 04 Jun 1981 UTC launched from the Plesetsk Missile And Space Complex (PKMTR). Debris objects in space refer to the collection of defunct objects orbiting the Earth. Examples of debris include non-operational satellites, rocket bodies, and fragments generated from explosions, collisions, or faulty payload assembly.

Loading next visibility...
Identifier
42099, 1981-053PK
Orbit
LEO
Country
Flag of CISCIS
Related business
Manufacturer
Unknown
Mission
Spacecraft
Bus & Motor
Unknown
Mass
Unknown
Launch date (UTC)
1981-06-04 (45 years ago)
Launch vehicle
Unknown
Launch site
Plesetsk Missile And Space Complex (PKMTR)
Object type
Payload
Rocket body
Debris
Shape & HBR
Unknown shape, 0.1 m
Radar Cross Section
Small (<0.1 m²)

Expand to show TLE details & history
Last TLE update: 2 weeks ago

TLE from 2 weeks ago
0 COSMOS 1275 DEB
1 42099U 81053PK  26108.17629748  .00003596  00000-0  12946-2 0  9999
2 42099  82.8495  80.5853 0026005 196.9713 163.0609 14.33336995527881
Epoch: 2026-04-18T04:13Z
TLE epoch observation values (Epoch: 2026-04-18T04:13:52.102Z)
Latitude
0.00004°
Longitude
170.81932°
Altitude
801.393 km
Speed
7.443 km/s
True Right ascension
05h 22m 20s
True Declination
0° 00' 00"
Sunlit
Object was in daylight at epoch
Visualization orbit readout
Latitude
Unknown
Longitude
Unknown
Altitude
Unknown
Speed
Unknown
Apparent Right ascension
Unknown
Apparent Declination
Unknown
Sunlit
N/A
Visualization observer readout
Local Sidereal Time
20:54:58
Azimuth
Unknown
Elevation
Unknown
Doppler factor
Unknown
Orbital elements
Apogee altitude
796.279 km
Perigee altitude
759.062 km
Semi-major axis
7,155.807 km
Eccentricity
0.0026
Inclination
82.8495°
RAAN
80.5853°
Arg. of periapsis
196.9713°
True anomaly
163.14745°
Mean anomaly
163.0609°
Eccentric anomaly
163.1042°
Mean motion
3.58555 °/min
Orbital period
100.4 mins
BSTAR
0.0012946
Loading maneuver chart data...
Computing Atmospheric mass density...

Documentation

Showing up to 5 results
|